Regional Weather Roundup
Issued by NWS

Home | Current Version | Previous Version | Graphics & Text | Print | Product List | Glossary On
Versions: 1 2 3 4 5 6 7 8 9 10 11 12 13 14 15 16 17 18 19 20 21 22 23 24 25 26 27 28 29 30 31 32 33 34 35 36 37 38 39 40 41 42 43 44 45 46 47 48 49 50
000
ASUS43 KFSD 230410
RWRSD

WEATHER ROUNDUP FOR SOUTH DAKOTA
NATIONAL WEATHER SERVICE SIOUX FALLS SD
1000 PM CST MON JAN 22 2018

NOTE: "FAIR" INDICATES FEW OR NO CLOUDS BELOW 12,000 FEET WITH NO
SIGNIFICANT WEATHER AND/OR OBSTRUCTIONS TO VISIBILITY.


SDZ001>005-009-010-012>017-230500-
NORTHWEST AND NORTH CENTRAL SOUTH DAKOTA

CITY           SKY/WX    TMP DP  RH WIND       PRES   REMARKS
BUFFALO          N/A     27  19  72 W13       29.95S WCI  16
FAITH            N/A     23  19  85 NW10      30.01R WCI  12
MOBRIDGE       CLOUDY    24  21  88 N3        30.01S FOG
$$

SDZ012>016-024>037-041>051-057-063-072>074-230500-
SOUTHWEST AND SOUTH CENTRAL SOUTH DAKOTA

CITY           SKY/WX    TMP DP  RH WIND       PRES   REMARKS
RAPID CTY ARPT PTCLDY    29  18  63 NW15      30.02R WCI  18
PIERRE         CLOUDY    21  21 100 N8        30.04S FOG     WCI  11
CUSTER         PTCLDY    24  13  62 CALM      29.99R
ELLSWORTH AFB  PTCLDY    29  19  67 NW13      30.02R WCI  18
PHILIP         CLEAR     21  19  92 W9        30.04R WCI  11
PINE RIDGE     CLEAR     13  10  88 CALM      30.06R
SPEARFISH        N/A     32  19  59 W8        30.04S WCI  25
WINNER         MIX PCPN  23  21  92 NW15      30.03R FOG     WCI  10
$$

SDZ004>011-016>023-039-040-230500-
NORTHEAST SOUTH DAKOTA

CITY           SKY/WX    TMP DP  RH WIND       PRES   REMARKS
ABERDEEN       CLOUDY    22  21  96 N15       30.05R WCI   9
WATERTOWN      CLOUDY    21  21 100 N16       29.94S WCI   7
BROOKINGS      CLOUDY    23  21  92 N18       29.92R WCI   9
SISSETON         N/A     24  21  88 N13       29.99S WCI  12
$$

SDZ017-020-022-023-036>040-048>070-230500-
SOUTHEAST SOUTH DAKOTA

CITY           SKY/WX    TMP DP  RH WIND       PRES   REMARKS
SIOUX FALLS    CLOUDY    26  24  92 N25       29.91R WCI  11
HURON          CLOUDY    22  21  96 N18       30.02R WCI   7
CHAMBERLAIN    CLOUDY    24  23  98 NW8G17    30.03R WCI  15
MITCHELL       CLOUDY    24  22  91 N21G30    30.01R WCI   9
YANKTON        MIX PCPN  24  21  88 N22       29.95R WCI   9
$$

ABBREVIATIONS USED IN REMARKS
   TC - TEMPERATURE IN CELSIUS
  WCI - WIND CHILL INDEX
   HX - HEAT INDEX
  VSB - VISIBILITY





USA.gov is the U.S. government's official web portal to all federal, state and local government web resources and services.